Weather History for Three Rivers, MI

Change the Weather History Date:

Sunday, December 2, 2007

  Actual Average Record
Temperature  
Mean Temperature 42 °F -  
Max Temperature 51 °F 40 °F 68 °F (1982)
Min Temperature 32 °F 24 °F 4 °F (1976)
Degree Days  
Heating Degree Days 24    
Moisture  
Dew Point 39 °F    
Average Humidity 94    
Maximum Humidity 100    
Minimum Humidity 81    
Precipitation  
Precipitation 0.00 in - - ()
Sea Level Pressure  
Sea Level Pressure 29.78 in    
Wind  
Wind Speed 7 mph (SSW)    
Max Wind Speed 22 mph    
Max Gust Speed 28 mph    
Visibility 6 miles    
Events Rain , Snow    
Averages and records for this station are not official NWS values.
T = Trace of Precipitation, MM = Missing Value Source: NWS Daily Summary

Daily Weather History Graph

Daily Weather History Graph

Search for Another Location

Airport:

Trip Planner

Search our weather history database for the weather conditions in past years. The results will help you decide how hot, cold, wet, or windy it might be!

Date:

Astronomy

Dec. 02, 2007 Rise Set
Actual Time 7:51 AM EST 5:11 PM EST
Civil Twilight 7:20 AM EST 5:42 PM EST
Nautical Twilight 6:45 AM EST 6:17 PM EST
Astronomical Twilight 6:11 AM EST 6:51 PM EST
Moon 1:00 AM EST (12/2) 1:35 PM EST (12/2)
Length of Visible Light 10h 22m
Length of Day
9h 20m
Last Quarter, 39% of the Moon is Illuminated
Dec 2
Last Quarter
Dec 9
New
Dec 17
First Quarter
Dec 23
Full
Dec 31
Last Quarter

Hourly Weather History & Observations

Time (EST) Temp. Windchill Dew Point Humidity Pressure Visibility Wind Dir Wind Speed Gust Speed Precip Events Conditions
12:17 AM 32.0 °F 24.8 °F 28.4 °F 87% 29.98 in 3.0 mi SSE 8.1 mph - N/A Snow Light Snow
12:37 AM 32.0 °F 25.6 °F 28.4 °F 87% 29.97 in 7.0 mi SSE 6.9 mph - N/A Snow Light Snow
12:55 AM 32.0 °F 27.5 °F 28.4 °F 87% 29.98 in 7.0 mi SSE 4.6 mph - N/A   Overcast
1:17 AM 32.0 °F 28.7 °F 28.4 °F 87% 29.96 in 4.0 mi SSE 3.5 mph - N/A   Overcast
1:37 AM 32.0 °F 28.7 °F 30.2 °F 93% 29.95 in 3.0 mi SSE 3.5 mph - N/A   Overcast
1:55 AM 32.0 °F 27.5 °F 30.2 °F 93% 29.93 in 5.0 mi SSE 4.6 mph - N/A   Overcast
2:17 AM 32.0 °F 27.5 °F 30.2 °F 93% 29.92 in 5.0 mi SSE 4.6 mph - N/A   Overcast
3:17 AM 32.0 °F 27.5 °F 32.0 °F 100% 29.89 in 7.0 mi South 4.6 mph - N/A   Overcast
3:37 AM 32.0 °F 28.7 °F 32.0 °F 100% 29.88 in 10.0 mi SSE 3.5 mph - N/A   Overcast
3:55 AM 32.0 °F 28.7 °F 32.0 °F 100% 29.88 in 10.0 mi SSE 3.5 mph - N/A   Overcast
4:17 AM 33.8 °F 30.8 °F 32.0 °F 93% 29.86 in 5.0 mi SSE 3.5 mph - N/A   Overcast
4:37 AM 33.8 °F 28.6 °F 32.0 °F 93% 29.87 in 10.0 mi South 5.8 mph - N/A   Overcast
4:55 AM 33.8 °F 28.6 °F 32.0 °F 93% 29.86 in 10.0 mi South 5.8 mph - N/A   Overcast
5:17 AM 33.8 °F 29.6 °F 32.0 °F 93% 29.85 in 10.0 mi South 4.6 mph - N/A   Overcast
5:55 AM 33.8 °F 27.7 °F 32.0 °F 93% 29.84 in 10.0 mi South 6.9 mph - N/A   Overcast
6:17 AM 33.8 °F 25.8 °F 32.0 °F 93% 29.83 in 10.0 mi South 10.4 mph - N/A   Overcast
6:37 AM 33.8 °F 26.4 °F 33.8 °F 100% 29.83 in 7.0 mi South 9.2 mph - N/A   Overcast
6:55 AM 35.6 °F 28.6 °F 33.8 °F 93% 29.83 in 7.0 mi South 9.2 mph - N/A   Overcast
7:17 AM 35.6 °F 28.0 °F 33.8 °F 93% 29.83 in 7.0 mi South 10.4 mph - N/A   Overcast
7:37 AM 35.6 °F 28.6 °F 33.8 °F 93% 29.83 in 7.0 mi South 9.2 mph - N/A   Overcast
7:55 AM 35.6 °F 28.0 °F 35.6 °F 100% 29.83 in 7.0 mi South 10.4 mph - N/A   Overcast
8:16 AM 37.4 °F 30.3 °F 35.6 °F 93% 29.83 in 5.0 mi South 10.4 mph - N/A   Overcast
8:36 AM 37.4 °F 32.1 °F 35.6 °F 93% 29.82 in 5.0 mi SSW 6.9 mph - N/A   Overcast
8:55 AM 37.4 °F 31.4 °F 35.6 °F 93% 29.83 in 7.0 mi SSW 8.1 mph - N/A   Overcast
9:16 AM 39.2 °F 33.6 °F 37.4 °F 93% 29.83 in 7.0 mi SSW 8.1 mph - N/A   Overcast
9:37 AM 41.0 °F 35.2 °F 37.4 °F 87% 29.82 in 7.0 mi SSW 9.2 mph - N/A   Overcast
9:55 AM 41.0 °F 34.7 °F 37.4 °F 87% 29.82 in 10.0 mi SSW 10.4 mph - N/A   Overcast
10:17 AM 42.8 °F 37.5 °F 37.4 °F 81% 29.82 in 7.0 mi SSW 9.2 mph - N/A Rain Rain
10:37 AM 42.8 °F 37.0 °F 39.2 °F 87% 29.81 in 7.0 mi SSW 10.4 mph - N/A   Overcast
11:17 AM 44.6 °F 39.2 °F 41.0 °F 87% 29.79 in 10.0 mi SSW 10.4 mph - N/A   Overcast
11:37 AM 44.6 °F 39.7 °F 41.0 °F 87% 29.77 in 7.0 mi SSW 9.2 mph - N/A   Overcast
11:55 AM 44.6 °F 40.2 °F 42.8 °F 93% 29.75 in 7.0 mi South 8.1 mph - N/A   Overcast
12:16 PM 46.4 °F 42.9 °F 42.8 °F 87% 29.74 in 7.0 mi South 6.9 mph - N/A   Overcast
12:36 PM 46.4 °F 43.5 °F 44.6 °F 93% 29.72 in 5.0 mi South 5.8 mph - N/A   Overcast
12:55 PM 48.2 °F - 44.6 °F 87% 29.70 in 5.0 mi South 8.1 mph - N/A   Overcast
1:17 PM 46.4 °F 43.5 °F 44.6 °F 93% 29.68 in 5.0 mi South 5.8 mph - N/A Rain Light Rain
1:55 PM 46.4 °F 44.3 °F 46.4 °F 100% 29.66 in 2.0 mi South 4.6 mph - N/A Rain Light Rain
2:17 PM 48.2 °F - 48.2 °F 100% 29.68 in 2.0 mi West 9.2 mph - N/A Rain Heavy Rain
2:37 PM 48.2 °F - 48.2 °F 100% 29.65 in 1.0 mi South 5.8 mph - N/A Rain Rain
2:55 PM 48.2 °F - 48.2 °F 100% 29.64 in 0.8 mi SSW 3.5 mph - N/A Rain Light Rain
3:16 PM 50.0 °F - 48.2 °F 94% 29.62 in 0.8 mi South 8.1 mph - N/A Rain Rain
3:36 PM 50.0 °F - 50.0 °F 100% 29.62 in 1.2 mi SW 6.9 mph - N/A Rain Rain
3:55 PM 51.8 °F - 51.8 °F 100% 29.61 in 2.5 mi SW 8.1 mph 17.3 mph N/A Rain Light Rain
4:17 PM 51.8 °F - 51.8 °F 100% 29.60 in 3.0 mi WSW 5.8 mph - N/A Rain Light Rain
4:35 PM 51.8 °F - 51.8 °F 100% 29.60 in 4.0 mi WSW 3.5 mph - N/A Rain Light Rain
4:55 PM 50.0 °F - 50.0 °F 100% 29.59 in 2.5 mi WNW 3.5 mph - N/A Rain Light Rain
5:17 PM 48.2 °F - 48.2 °F 100% 29.62 in 5.0 mi WNW 11.5 mph - N/A Rain Light Rain
5:37 PM 46.4 °F 42.9 °F 46.4 °F 100% 29.61 in 4.0 mi WNW 6.9 mph - N/A Rain Light Rain
5:55 PM 44.6 °F 39.2 °F 44.6 °F 100% 29.61 in 4.0 mi WNW 10.4 mph - N/A   Drizzle
6:37 PM 41.0 °F 32.2 °F 41.0 °F 100% 29.62 in 7.0 mi WNW 18.4 mph 23.0 mph N/A Rain Light Rain
6:55 PM 41.0 °F 31.4 °F 39.2 °F 93% 29.63 in 10.0 mi WNW 21.9 mph 27.6 mph N/A   Overcast
7:16 PM 39.2 °F 30.2 °F 37.4 °F 93% 29.67 in 7.0 mi WNW 17.3 mph 27.6 mph N/A Rain Light Rain
7:34 PM 37.4 °F 26.6 °F 37.4 °F 100% 29.68 in 4.0 mi WNW 21.9 mph 29.9 mph N/A   Overcast
7:55 PM 37.4 °F 27.8 °F 35.6 °F 93% 29.69 in 7.0 mi WNW 17.3 mph 26.5 mph N/A   Overcast
8:16 PM 37.4 °F 27.2 °F 35.6 °F 93% 29.71 in 10.0 mi WNW 19.6 mph 26.5 mph N/A   Overcast
8:37 PM 37.4 °F 26.6 °F 35.6 °F 93% 29.72 in 10.0 mi WNW 21.9 mph 33.4 mph N/A   Overcast
8:55 PM 37.4 °F 26.4 °F 33.8 °F 87% 29.74 in 10.0 mi WNW 23.0 mph 34.5 mph N/A   Overcast
9:17 PM 35.6 °F 24.8 °F 33.8 °F 93% 29.74 in 7.0 mi WNW 19.6 mph 32.2 mph N/A Rain Light Rain
9:37 PM 35.6 °F 23.7 °F 33.8 °F 93% 29.75 in 7.0 mi WNW 24.2 mph 31.1 mph N/A Rain Light Rain
10:36 PM 33.8 °F 21.3 °F 32.0 °F 93% 29.78 in 10.0 mi WNW 24.2 mph 33.4 mph N/A   Overcast
11:16 PM 33.8 °F 21.3 °F 30.2 °F 87% 29.81 in 10.0 mi West 24.2 mph 35.7 mph N/A   Overcast
11:37 PM 33.8 °F 23.2 °F 30.2 °F 87% 29.82 in 10.0 mi WNW 17.3 mph 34.5 mph N/A   Overcast
11:55 PM 33.8 °F 23.2 °F 28.4 °F 81% 29.84 in 10.0 mi WNW 17.3 mph 31.1 mph N/A   Overcast